[[{"header":{"parameterUnit":"m.s-1","parameterCategory":1,"la1":30.2991,"la2":30.254,"lo1":-89.0895,"lo2":-89.0444,"dy":0.0017,"dx":0.0017,"nx":28,"ny":28,"refTime":"2024-06-28T09:00:00:Z","depth":0,"parameterNumber":2,"parameterNumberName":"U-component_of_WINDS"},"data":[0,0,0,0,0,0,0,0,0,0,0,0,0,0,0,0,0,0,0,0,0,0,0,0,0,0,0,0,0,0,0,0,0,0,0,0,0,0,0,0,0,0,0,0,0,0,0,0,0,0,0,0,0,0,0,0,0,0,4.6789,4.679,0,4.6947,4.6949,4.695,4.6944,4.6942,4.694,4.6938,4.7103,4.7109,4.7115,0,0,0,0,0,0,0,0,0,0,0,0,0,4.6482,4.6488,4.6788,4.679,4.6792,4.6947,4.6949,4.6951,4.6945,4.6942,4.6939,4.6937,4.71,4.7108,4.7116,0,0,0,0,0,0,0,0,0,0,0,0,0,4.6626,4.649,4.6788,4.6808,4.6811,4.6946,4.6949,4.6951,4.6945,4.6942,4.6939,4.6936,4.7098,4.7107,4.7117,4.7243,0,0,4.7146,4.7151,0,0,0,0,0,0,0,0,4.6617,4.6637,4.6803,4.6807,4.6811,4.6922,4.6901,4.7049,4.6946,4.6895,4.6938,4.6934,4.7045,4.7059,4.7096,4.7251,4.7258,4.7147,4.7153,4.7157,4.716,0,0,0,0,0,0,0,4.6608,4.663,4.6851,4.6806,4.681,4.6809,4.6826,4.6929,4.6987,4.6899,4.6899,4.6917,4.7047,4.7087,4.71,4.726,4.7147,4.7156,4.7162,4.7165,4.7525,4.7528,0,0,0,0,0,0,4.6593,4.6622,4.6846,4.6856,4.6704,4.6818,4.6836,4.689,4.6986,4.6997,4.692,4.6917,4.7072,4.7089,4.7106,4.7259,4.7157,4.7166,4.7172,4.7521,4.7525,4.7529,0,0,0,0,0,0,4.6587,4.6613,4.684,4.6739,4.6768,4.6826,4.6887,4.6895,4.6935,4.7002,4.7012,4.695,4.707,4.7092,4.7208,4.7264,4.7171,4.7179,4.7516,4.7522,4.7527,4.7566,0,0,0,0,0,0,4.6578,4.6611,4.6659,4.674,4.6773,4.6939,4.689,4.69,4.6951,4.6948,4.7033,4.7044,4.7069,4.7194,4.7218,4.7276,4.7187,4.7512,4.7519,4.7526,4.756,4.7572,4.7583,0,0,0,0,0,4.6567,4.6665,4.6662,4.6689,4.6835,4.6943,4.6962,4.6988,4.6956,4.7005,4.7048,4.7041,4.7254,4.7206,4.7233,4.7295,4.7508,4.7517,4.7525,4.7555,4.757,4.7583,0,0,0,0,0,0,4.659,4.6676,4.6673,4.68,4.6864,4.6941,4.7004,4.7004,4.7079,4.7073,4.7103,4.7123,4.7239,4.7279,4.7223,4.7421,4.7377,4.7392,4.7391,4.7406,4.7417,4.7404,4.7195,0,0,0,0,0,4.661,4.669,4.6761,4.6866,4.6898,4.6945,4.6994,4.7008,4.7076,4.7103,4.7155,4.7221,4.7303,4.7357,4.7436,4.7566,4.7584,4.7622,4.7633,4.7642,4.7654,4.7724,4.7741,4.7557,4.7557,4.7557,0,0,4.6652,4.6708,4.6757,4.6872,4.6923,4.7005,4.6968,4.7057,4.7119,4.7117,4.7229,4.7269,4.7346,4.7469,4.7526,4.7506,4.7709,4.7653,4.7659,4.7666,4.7735,4.7752,4.7767,4.7563,4.7562,4.7561,0,0,4.677,4.6821,4.6913,4.6965,4.7043,4.7073,4.7096,4.7173,4.7199,4.7312,4.7312,4.7386,4.7527,4.7581,4.7627,4.7764,4.776,4.7789,4.7848,4.7916,4.7931,4.7944,4.7991,4.8008,4.78,4.78,4.7801,0,4.6812,4.6936,4.6961,4.705,4.71,4.7101,4.7195,4.7244,4.7344,4.7379,4.7355,4.753,4.7582,4.7717,4.775,4.7788,4.7813,4.7779,4.7926,4.794,4.7952,4.7998,4.8016,4.7803,4.7803,4.7803,4.7802,0,4.6983,4.7069,4.7134,4.7229,4.7287,4.7378,4.7417,4.7472,4.7482,4.7515,4.763,4.7691,4.7782,4.7816,4.7827,4.7952,4.7937,4.792,4.7876,4.7972,4.8016,4.8034,4.7807,4.7806,4.7806,4.7805,0,0,4.7121,4.7228,4.7251,4.7294,4.7379,4.7446,4.7536,4.7624,4.767,4.7739,4.7816,4.7934,4.7918,4.797,4.7987,4.8047,4.815,4.8022,4.8024,4.8042,4.829,4.8302,4.8322,4.8148,4.8151,4.8154,4.8284,0,4.7247,4.7407,4.7432,4.7573,4.7652,4.7654,4.7733,4.7793,4.7827,4.7899,4.7936,4.8019,4.7992,4.8023,4.8082,4.8124,4.82,4.8116,4.8219,4.8223,4.8199,4.8345,4.8359,4.8478,4.8301,4.8304,4.8306,0,4.7416,4.7487,4.7636,4.7709,4.7743,4.7813,4.7895,4.7964,4.8032,4.8053,4.811,4.8119,4.8213,4.8166,4.8296,4.8238,4.8282,4.8308,4.8314,4.8324,4.827,4.8359,4.8517,4.8534,4.8333,4.8331,4.8329,0,4.75,4.7634,4.7739,4.7776,4.7864,4.7913,4.7952,4.8017,4.8068,4.814,4.8173,4.8255,4.83,4.8364,4.8395,4.8358,4.8522,4.8478,4.8541,4.854,4.8576,4.8573,4.8742,4.8605,4.8605,4.8605,4.8604,0,4.7638,4.7729,4.7778,4.7843,4.7944,4.7972,4.8071,4.8109,4.8167,4.8239,4.8246,4.8314,4.8352,4.8425,4.845,4.8553,4.8574,4.8593,4.8598,4.8592,4.8589,4.862,4.8612,4.8609,4.8608,4.8607,4.8607,0,4.7749,4.7786,4.7901,4.7974,4.7995,4.8066,4.8129,4.8192,4.8224,4.8316,4.8339,4.839,4.8477,4.8514,4.8621,4.8638,4.8755,4.8755,4.8732,4.8733,4.8794,4.8788,4.8989,4.9016,4.8862,4.8864,4.8865,0,4.7834,4.7904,4.7984,4.8032,4.8072,4.815,4.8201,4.8231,4.8285,4.8367,4.842,4.8506,4.8577,4.8715,4.8762,4.8844,4.8845,4.891,4.8858,4.8848,4.8845,4.884,4.8847,4.892,4.8921,4.8922,4.8923,0,4.7981,4.7996,4.8069,4.8148,4.8209,4.8273,4.8336,4.8375,4.8415,4.8474,4.8562,4.8617,4.8725,4.881,4.8894,4.8935,4.8936,4.8939,4.8958,4.8952,4.8935,4.8944,4.8757,4.8935,4.8934,4.8933,4.8932,4.8932,4.8082,4.8143,4.8208,4.8289,4.8339,4.8397,4.8459,4.8499,4.8572,4.8662,4.8675,4.8769,4.8834,4.8947,4.8991,4.9065,4.9049,4.9076,4.9083,4.9089,4.9092,4.8923,4.908,4.908,4.908,4.908,4.9079,0,4.8228,4.827,4.8344,4.843,4.8494,4.8488,4.8557,4.8611,4.8692,4.8753,4.8822,4.8922,4.9005,4.9058,4.9141,4.9189,4.9192,4.921,4.9207,4.9216,4.9103,4.9077,4.9207,4.9207,4.9207,4.9207,4.9207,4.9207,4.8312,4.8414,4.8436,4.8563,4.8604,4.8695,4.8734,4.8788,4.8836,4.8947,4.9015,4.9049,4.9107,4.9194,4.9269,4.9282,4.9312,4.9331,4.9344,4.9237,4.9224,4.9211,4.9188,4.9338,4.9338,4.9451,4.9452,4.9453]},{"header":{"parameterUnit":"m.s-1","parameterCategory":1,"la1":30.2991,"la2":30.254,"lo1":-89.0895,"lo2":-89.0444,"dy":0.0017,"dx":0.0017,"nx":28,"ny":28,"refTime":"2024-06-28T09:00:00:Z","depth":0,"parameterNumber":3,"parameterNumberName":"V-component_of_WINDS"},"data":[0,0,0,0,0,0,0,0,0,0,0,0,0,0,0,0,0,0,0,0,0,0,0,0,0,0,0,0,0,0,0,0,0,0,0,0,0,0,0,0,0,0,0,0,0,0,0,0,0,0,0,0,0,0,0,0,0,0,2.2912,2.2912,0,2.2892,2.2892,2.2892,2.287,2.2869,2.2869,2.2869,2.2848,2.2847,2.2847,0,0,0,0,0,0,0,0,0,0,0,0,0,2.2928,2.2928,2.2912,2.2911,2.2911,2.2892,2.2892,2.2892,2.287,2.2869,2.2869,2.2868,2.2848,2.2847,2.2847,0,0,0,0,0,0,0,0,0,0,0,0,0,2.2916,2.2928,2.2912,2.2898,2.2896,2.2892,2.2892,2.2892,2.287,2.2869,2.2869,2.2868,2.2848,2.2847,2.2847,2.2855,0,0,2.2846,2.2846,0,0,0,0,0,0,0,0,2.2917,2.2916,2.29,2.2899,2.2897,2.2883,2.289,2.2879,2.287,2.288,2.2869,2.2868,2.286,2.2858,2.2856,2.2854,2.2853,2.2846,2.2846,2.2846,2.2845,0,0,0,0,0,0,0,2.2918,2.2916,2.2904,2.29,2.2898,2.2892,2.289,2.2888,2.2873,2.2879,2.2877,2.2875,2.2859,2.2856,2.2855,2.2853,2.2846,2.2846,2.2845,2.2845,2.2856,2.2856,0,0,0,0,0,0,2.2921,2.2917,2.2905,2.2903,2.2906,2.2892,2.289,2.2888,2.2873,2.287,2.2876,2.2874,2.2857,2.2856,2.2854,2.2862,2.2846,2.2845,2.2845,2.2855,2.2856,2.2857,0,0,0,0,0,0,2.2921,2.292,2.2905,2.291,2.2908,2.2893,2.2891,2.2888,2.2885,2.287,2.2867,2.2876,2.2857,2.2855,2.2855,2.2861,2.2845,2.2845,2.2855,2.2856,2.2856,2.2878,0,0,0,0,0,0,2.2922,2.292,2.2923,2.291,2.2907,2.2907,2.2891,2.2888,2.2885,2.2883,2.287,2.2867,2.2856,2.2856,2.2855,2.286,2.2844,2.2854,2.2855,2.2856,2.2877,2.288,2.2882,0,0,0,0,0,2.2923,2.293,2.2924,2.2922,2.2911,2.2907,2.2906,2.2893,2.2885,2.2888,2.2879,2.2868,2.2861,2.2856,2.2854,2.286,2.2854,2.2855,2.2856,2.2876,2.2879,2.2882,0,0,0,0,0,0,2.2944,2.2928,2.2921,2.2924,2.2917,2.2903,2.2906,2.2897,2.2892,2.289,2.2874,2.2872,2.2873,2.2867,2.2862,2.2867,2.2856,2.2857,2.2871,2.2874,2.2877,2.2878,2.2844,0,0,0,0,0,2.2949,2.2948,2.2934,2.2938,2.2935,2.2922,2.2919,2.291,2.2902,2.2899,2.289,2.2882,2.2878,2.2876,2.2871,2.2876,2.2872,2.2879,2.2882,2.2884,2.2885,2.2886,2.2889,2.286,2.286,2.286,0,0,2.296,2.2951,2.2951,2.2942,2.2936,2.2934,2.2919,2.2918,2.2917,2.2899,2.2898,2.2891,2.2882,2.2884,2.2884,2.2878,2.2892,2.2885,2.2887,2.2887,2.2888,2.289,2.2893,2.2861,2.2861,2.2861,0,0,2.2978,2.2971,2.2974,2.2968,2.2959,2.295,2.295,2.2938,2.2933,2.2932,2.2919,2.2917,2.291,2.2904,2.29,2.2916,2.2906,2.2915,2.2928,2.293,2.2932,2.2934,2.294,2.2942,2.2916,2.2916,2.2916,0,2.2992,2.299,2.2977,2.2977,2.2973,2.2957,2.296,2.2954,2.2944,2.2942,2.2935,2.2927,2.292,2.292,2.2924,2.2922,2.2921,2.2916,2.2933,2.2935,2.2936,2.2941,2.2944,2.2917,2.2917,2.2917,2.2917,0,2.3007,2.3006,2.3009,2.3,2.2997,2.2998,2.2985,2.2983,2.2975,2.2966,2.2966,2.2956,2.295,2.2949,2.294,2.2948,2.2945,2.2936,2.2924,2.2941,2.2945,2.2947,2.2919,2.2919,2.2918,2.2918,0,0,2.3038,2.3022,2.3023,2.3019,2.3007,2.3006,2.3006,2.3,2.2999,2.2992,2.2992,2.2987,2.2979,2.2974,2.2965,2.2967,2.298,2.2957,2.2957,2.2962,2.2988,2.2994,2.2996,2.2973,2.2973,2.2974,2.2988,0,2.3054,2.3054,2.3042,2.3046,2.3044,2.3029,2.3029,2.3022,2.3015,2.3012,2.3003,2.3,2.2989,2.2986,2.2988,2.2978,2.2985,2.2977,2.2972,2.2972,2.2975,2.2999,2.3006,2.302,2.299,2.299,2.299,0,2.3072,2.3067,2.307,2.3059,2.3058,2.3058,2.3052,2.3049,2.3041,2.3035,2.303,2.302,2.3019,2.3009,2.3007,2.3002,2.3,2.2995,2.2995,2.2993,2.2982,2.2998,2.3024,2.3026,2.2993,2.2993,2.2993,0,2.3094,2.3088,2.3089,2.3085,2.3072,2.3073,2.3067,2.3059,2.3056,2.305,2.3048,2.3042,2.3039,2.3034,2.3022,2.3016,2.3022,2.301,2.3017,2.3017,2.3018,2.3018,2.3044,2.3018,2.3017,2.3017,2.3017,0,2.3112,2.3115,2.3098,2.3099,2.3101,2.3088,2.309,2.3083,2.3076,2.3074,2.3061,2.306,2.3045,2.3042,2.3032,2.3033,2.3031,2.3026,2.3023,2.3027,2.3028,2.3025,2.3023,2.3018,2.3018,2.3018,2.3018,0,2.3136,2.3125,2.3126,2.3113,2.311,2.3113,2.3102,2.3102,2.3093,2.3092,2.3091,2.3077,2.3073,2.3061,2.3054,2.3048,2.305,2.3046,2.3053,2.3052,2.3058,2.3058,2.3083,2.3085,2.3058,2.3058,2.3058,0,2.3149,2.315,2.3138,2.3137,2.3132,2.313,2.3127,2.3114,2.3111,2.3102,2.3103,2.3098,2.3093,2.3088,2.3077,2.3071,2.3066,2.3075,2.3065,2.3069,2.3066,2.3066,2.3065,2.3077,2.3078,2.3078,2.3078,0,2.3172,2.3166,2.3163,2.3157,2.3154,2.315,2.3144,2.3143,2.3129,2.3127,2.3123,2.3119,2.3112,2.3107,2.31,2.3094,2.3083,2.3082,2.3083,2.3086,2.309,2.3088,2.3059,2.3081,2.3081,2.3081,2.308,2.308,2.319,2.319,2.3182,2.3179,2.3173,2.3168,2.3168,2.3159,2.3156,2.315,2.3142,2.3139,2.313,2.312,2.3114,2.3112,2.3106,2.3108,2.3108,2.3108,2.311,2.3091,2.311,2.311,2.311,2.311,2.311,0,2.3212,2.3206,2.3203,2.3195,2.3193,2.3184,2.3177,2.3175,2.3173,2.3166,2.3162,2.3157,2.3153,2.3142,2.3136,2.3136,2.3131,2.3135,2.3134,2.3133,2.3115,2.3115,2.3139,2.3139,2.3139,2.3139,2.3139,2.3139,2.3223,2.3223,2.3217,2.3215,2.3209,2.3206,2.3203,2.3198,2.3192,2.3188,2.3184,2.3178,2.3169,2.3163,2.3158,2.3155,2.3153,2.3158,2.3153,2.3137,2.3134,2.3132,2.3131,2.3158,2.3158,2.3171,2.3171,2.3171]}]]